| time (UTC) | temp F | wind direction | speed MPH | gust MPH | rain 1hr in | rain 24hr in | rain mn in | humidity % | barometer mb |
| 20260902171410 | 69 | 273 | 6.0 | 14.0 | 0.00 | 0.06 | 0.06 | 72 | 1018.8 |
| 20260902170409 | 69 | 253 | 2.0 | 6.0 | 0.00 | 0.06 | 0.06 | 74 | 1018.8 |
| 20260902165410 | 69 | 323 | 2.0 | 7.0 | 0.00 | 0.06 | 0.06 | 75 | 1018.7 |
| 20260902164410 | 69 | 298 | 2.0 | 4.0 | 0.00 | 0.06 | 0.06 | 76 | 1018.8 |
| 20260902163410 | 68 | 289 | 2.0 | 4.0 | 0.00 | 0.06 | 0.06 | 77 | 1018.9 |
| 20260902162409 | 68 | 271 | 2.0 | 4.0 | 0.00 | 0.06 | 0.06 | 77 | 1018.9 |
| 20260902161409 | 68 | 286 | 3.0 | 7.0 | 0.00 | 0.06 | 0.06 | 77 | 1018.8 |
| 20260902160409 | 69 | 277 | 3.0 | 6.0 | 0.00 | 0.06 | 0.06 | 76 | 1018.9 |
| 20260902154409 | 70 | 209 | 2.0 | 7.0 | 0.00 | 0.06 | 0.06 | 79 | 1019.0 |
| 20260902152409 | 69 | 184 | 2.0 | 4.0 | 0.00 | 0.06 | 0.06 | 84 | 1019.0 |
| 20260902151410 | 68 | 205 | 3.0 | 5.0 | 0.00 | 0.06 | 0.06 | 86 | 1019.0 |
| 20260902150409 | 67 | 162 | 2.0 | 5.0 | 0.00 | 0.06 | 0.06 | 87 | 1019.0 |
| 20260902145410 | 67 | 182 | 1.0 | 3.0 | 0.00 | 0.06 | 0.06 | 88 | 1019.2 |
| 20260902143409 | 67 | 236 | 1.0 | 6.0 | 0.00 | 0.06 | 0.06 | 85 | 1019.2 |
| 20260902142502 | 68 | 309 | 1.0 | 5.0 | 0.01 | 0.06 | 0.06 | 85 | 1019.1 |
| 20260902141401 | 66 | 153 | 1.0 | 3.0 | 0.02 | 0.06 | 0.06 | 92 | 1019.2 |
| 20260902135401 | 62 | 167 | 2.0 | 5.0 | 0.06 | 0.06 | 0.06 | 92 | 1019.3 |
| 20260902134402 | 62 | 180 | 2.0 | 3.0 | 0.06 | 0.06 | 0.06 | 92 | 1019.3 |
| 20260902133401 | 61 | 285 | 0.0 | 1.0 | 0.06 | 0.06 | 0.06 | 91 | 1019.5 |
| 20260902132401 | 62 | 327 | 3.0 | 8.0 | 0.05 | 0.05 | 0.05 | 87 | 1019.6 |
| 20260902131401 | 65 | 310 | 9.0 | 16.0 | 0.03 | 0.03 | 0.03 | 81 | 1019.7 |
| 20260902125403 | 71 | 286 | 3.0 | 11.0 | 0.00 | 0.00 | 0.00 | 73 | 1019.0 |
| 20260902123403 | 71 | 281 | 4.0 | 8.0 | 0.00 | 0.00 | 0.00 | 71 | 1019.0 |
| 20260902122401 | 70 | 246 | 4.0 | 10.0 | 0.00 | 0.00 | 0.00 | 72 | 1019.0 |
| 20260902121401 | 70 | 191 | 6.0 | 13.0 | 0.00 | 0.00 | 0.00 | 73 | 1019.1 |
| 20260902120401 | 70 | 273 | 4.0 | 11.0 | 0.00 | 0.00 | 0.00 | 72 | 1019.1 |
| 20260902115403 | 70 | 197 | 4.0 | 11.0 | 0.00 | 0.00 | 0.00 | 71 | 1019.1 |
| 20260902113401 | 71 | 244 | 5.0 | 12.0 | 0.00 | 0.00 | 0.00 | 70 | 1019.3 |
| 20260902112403 | 71 | 321 | 3.0 | 8.0 | 0.00 | 0.00 | 0.00 | 71 | 1019.2 |
| 20260902111401 | 71 | 281 | 4.0 | 10.0 | 0.00 | 0.00 | 0.00 | 73 | 1019.3 |
| 20260902105406 | 71 | 155 | 5.0 | 10.0 | 0.00 | 0.00 | 0.00 | 71 | 1019.2 |
| 20260902104406 | 71 | 163 | 3.0 | 13.0 | 0.00 | 0.00 | 0.00 | 72 | 1019.3 |
| 20260902103408 | 71 | 233 | 4.0 | 11.0 | 0.00 | 0.00 | 0.00 | 73 | 1019.4 |
| 20260902102406 | 70 | 155 | 4.0 | 12.0 | 0.00 | 0.00 | 0.00 | 76 | 1019.4 |
| 20260902100406 | 69 | 166 | 6.0 | 15.0 | 0.00 | 0.00 | 0.00 | 78 | 1019.4 |
| 20260902095406 | 69 | 254 | 5.0 | 11.0 | 0.00 | 0.00 | 0.00 | 79 | 1019.4 |
| 20260902094406 | 68 | 277 | 6.0 | 12.0 | 0.00 | 0.00 | 0.00 | 79 | 1019.4 |
| 20260902093406 | 68 | 213 | 4.0 | 9.0 | 0.00 | 0.00 | 0.00 | 80 | 1019.5 |
| 20260902092406 | 68 | 295 | 4.0 | 12.0 | 0.00 | 0.00 | 0.00 | 80 | 1019.4 |
| 20260902091406 | 67 | 294 | 3.0 | 9.0 | 0.00 | 0.00 | 0.00 | 81 | 1019.4 |
| 20260902090406 | 67 | 182 | 4.0 | 10.0 | 0.00 | 0.00 | 0.00 | 81 | 1019.4 |
| 20260902085407 | 66 | 194 | 4.0 | 11.0 | 0.00 | 0.00 | 0.00 | 81 | 1019.4 |
| 20260902084406 | 66 | 139 | 4.0 | 10.0 | 0.00 | 0.00 | 0.00 | 81 | 1019.4 |
| 20260902082406 | 65 | 197 | 4.0 | 9.0 | 0.00 | 0.00 | 0.00 | 82 | 1019.3 |
| 20260902081407 | 64 | 231 | 5.0 | 10.0 | 0.00 | 0.00 | 0.00 | 83 | 1019.2 |
| 20260902080406 | 64 | 192 | 4.0 | 9.0 | 0.00 | 0.00 | 0.00 | 83 | 1019.2 |
| 20260902075406 | 63 | 224 | 2.0 | 6.0 | 0.00 | 0.00 | 0.00 | 84 | 1019.2 |
| 20260902074406 | 62 | 211 | 4.0 | 8.0 | 0.00 | 0.00 | 0.00 | 85 | 1019.1 |
| 20260902073406 | 62 | 190 | 4.0 | 8.0 | 0.00 | 0.00 | 0.00 | 85 | 1019.1 |
| 20260902072407 | 61 | 153 | 3.0 | 8.0 | 0.00 | 0.00 | 0.00 | 85 | 1019.1 |
| 20260902071406 | 60 | 171 | 3.0 | 7.0 | 0.00 | 0.00 | 0.00 | 85 | 1019.2 |
| 20260902070407 | 60 | 175 | 3.0 | 7.0 | 0.00 | 0.00 | 0.00 | 86 | 1019.1 |
| 20260902065406 | 59 | 198 | 4.0 | 7.0 | 0.00 | 0.00 | 0.00 | 87 | 1019.1 |
| 20260902064406 | 58 | 173 | 3.0 | 7.0 | 0.00 | 0.00 | 0.00 | 88 | 1019.1 |
| 20260902063406 | 58 | 171 | 3.0 | 7.0 | 0.00 | 0.00 | 0.00 | 89 | 1019.2 |
| 20260902062406 | 57 | 175 | 3.0 | 5.0 | 0.00 | 0.00 | 0.00 | 90 | 1019.2 |
| 20260902061406 | 57 | 163 | 3.0 | 6.0 | 0.00 | 0.00 | 0.00 | 90 | 1019.2 |
| 20260902060406 | 56 | 165 | 2.0 | 5.0 | 0.00 | 0.00 | 0.00 | 92 | 1019.3 |
| 20260902055406 | 56 | 179 | 3.0 | 5.0 | 0.00 | 0.00 | 0.00 | 92 | 1019.3 |
| 20260902053406 | 55 | 137 | 3.0 | 7.0 | 0.00 | 0.00 | 0.00 | 93 | 1019.2 |
| 20260902052406 | 55 | 178 | 3.0 | 5.0 | 0.00 | 0.00 | 0.00 | 93 | 1019.2 |
| 20260902045406 | 55 | 181 | 3.0 | 5.0 | 0.00 | 0.00 | 0.00 | 94 | 1019.0 |
| 20260902044407 | 55 | 171 | 3.0 | 7.0 | 0.00 | 0.00 | 0.00 | 94 | 1019.1 |
| 20260902043406 | 55 | 163 | 2.0 | 5.0 | 0.00 | 0.00 | 0.00 | 94 | 1019.1 |
| 20260902042406 | 55 | 188 | 1.0 | 2.0 | 0.00 | 0.00 | 0.00 | 94 | 1019.2 |
| 20260902041407 | 55 | 193 | 1.0 | 4.0 | 0.00 | 0.00 | 0.00 | 94 | 1019.2 |
| 20260902040407 | 55 | 163 | 2.0 | 5.0 | 0.00 | 0.00 | 0.00 | 95 | 1019.3 |
| 20260902035407 | 54 | 153 | 2.0 | 4.0 | 0.00 | 0.00 | 0.00 | 95 | 1019.3 |
| 20260902034406 | 54 | 150 | 3.0 | 6.0 | 0.00 | 0.00 | 0.00 | 95 | 1019.4 |
| 20260902033406 | 54 | 161 | 2.0 | 4.0 | 0.00 | 0.00 | 0.00 | 95 | 1019.5 |
| 20260902031407 | 54 | 167 | 2.0 | 4.0 | 0.00 | 0.00 | 0.00 | 95 | 1019.7 |
| 20260902030406 | 54 | 157 | 2.0 | 5.0 | 0.00 | 0.00 | 0.00 | 95 | 1019.6 |
| 20260902025406 | 54 | 183 | 2.0 | 6.0 | 0.00 | 0.00 | 0.00 | 95 | 1019.7 |
| 20260902024406 | 54 | 159 | 3.0 | 5.0 | 0.00 | 0.00 | 0.00 | 95 | 1019.8 |
| 20260902022407 | 54 | 163 | 3.0 | 6.0 | 0.00 | 0.00 | 0.00 | 96 | 1019.8 |
| 20260902021407 | 53 | 166 | 2.0 | 4.0 | 0.00 | 0.00 | 0.00 | 96 | 1019.9 |
| 20260902020407 | 53 | 167 | 1.0 | 3.0 | 0.00 | 0.00 | 0.00 | 96 | 1019.7 |
| 20260902015406 | 53 | 169 | 1.0 | 4.0 | 0.00 | 0.00 | 0.00 | 96 | 1019.7 |
| 20260902014408 | 53 | 168 | 2.0 | 4.0 | 0.00 | 0.00 | 0.00 | 95 | 1019.7 |
| 20260902012407 | 52 | 177 | 1.0 | 2.0 | 0.00 | 0.00 | 0.00 | 95 | 1019.8 |
| 20260902011407 | 52 | 184 | 0.0 | 2.0 | 0.00 | 0.00 | 0.00 | 95 | 1019.9 |
| 20260902005407 | 52 | 185 | 0.0 | 2.0 | 0.00 | 0.00 | 0.00 | 95 | 1019.9 |
| 20260902004407 | 52 | 202 | 1.0 | 3.0 | 0.00 | 0.00 | 0.00 | 95 | 1019.9 |
| 20260902003407 | 53 | 250 | 0.0 | 2.0 | 0.00 | 0.00 | 0.00 | 94 | 1020.0 |
| 20260902002407 | 53 | 250 | 0.0 | 1.0 | 0.00 | 0.00 | 0.00 | 95 | 1019.9 |
| 20260902001407 | 53 | 250 | 0.0 | 0.0 | 0.00 | 0.00 | 0.00 | 94 | 1019.9 |
| 20260902000408 | 53 | 250 | 0.0 | 0.0 | 0.00 | 0.00 | 0.00 | 94 | 1020.0 |
| 20260901235407 | 53 | 250 | 0.0 | 0.0 | 0.00 | 0.00 | 0.00 | 94 | 1020.0 |
| 20260901234407 | 53 | 250 | 0.0 | 1.0 | 0.00 | 0.00 | 0.00 | 94 | 1019.9 |
| 20260901233407 | 53 | 250 | 0.0 | 0.0 | 0.00 | 0.00 | 0.00 | 94 | 1019.9 |
| 20260901232407 | 53 | 250 | 0.0 | 1.0 | 0.00 | 0.00 | 0.00 | 93 | 1019.8 |
| 20260901230407 | 54 | 250 | 0.0 | 0.0 | 0.00 | 0.00 | 0.00 | 93 | 1020.1 |
| 20260901224407 | 54 | 250 | 0.0 | 1.0 | 0.00 | 0.00 | 0.00 | 93 | 1020.3 |
| 20260901223407 | 54 | 250 | 0.0 | 1.0 | 0.00 | 0.00 | 0.00 | 93 | 1020.3 |
| 20260901222408 | 54 | 263 | 0.0 | 0.0 | 0.00 | 0.00 | 0.00 | 93 | 1020.6 |
| 20260901221407 | 55 | 263 | 0.0 | 1.0 | 0.00 | 0.00 | 0.00 | 93 | 1020.6 |
| 20260901220407 | 55 | 263 | 0.0 | 1.0 | 0.00 | 0.00 | 0.00 | 93 | 1020.7 |
| 20260901215411 | 55 | 263 | 0.0 | 1.0 | 0.00 | 0.00 | 0.00 | 93 | 1020.6 |
| 20260901214410 | 55 | 263 | 0.0 | 1.0 | 0.00 | 0.00 | 0.00 | 92 | 1020.7 |
| 20260901213411 | 55 | 263 | 0.0 | 0.0 | 0.00 | 0.00 | 0.00 | 92 | 1020.8 |
| 20260901212410 | 55 | 263 | 0.0 | 2.0 | 0.00 | 0.00 | 0.00 | 92 | 1020.8 |
| 20260901211410 | 55 | 263 | 0.0 | 1.0 | 0.00 | 0.00 | 0.00 | 92 | 1020.8 |
| 20260901205410 | 56 | 263 | 0.0 | 1.0 | 0.00 | 0.00 | 0.00 | 91 | 1020.6 |
| 20260901204411 | 56 | 263 | 0.0 | 1.0 | 0.00 | 0.00 | 0.00 | 91 | 1020.4 |
| 20260901203410 | 56 | 263 | 0.0 | 1.0 | 0.00 | 0.00 | 0.00 | 90 | 1020.4 |
| 20260901202410 | 56 | 263 | 0.0 | 1.0 | 0.00 | 0.00 | 0.00 | 89 | 1020.3 |
| 20260901201411 | 57 | 263 | 0.0 | 0.0 | 0.00 | 0.00 | 0.00 | 88 | 1020.2 |
| 20260901200410 | 57 | 263 | 0.0 | 1.0 | 0.00 | 0.00 | 0.00 | 88 | 1020.3 |
| 20260901195410 | 57 | 263 | 0.0 | 1.0 | 0.00 | 0.00 | 0.00 | 87 | 1020.3 |
| 20260901194410 | 58 | 263 | 0.0 | 2.0 | 0.00 | 0.00 | 0.00 | 86 | 1020.2 |
| 20260901193410 | 58 | 263 | 0.0 | 1.0 | 0.00 | 0.00 | 0.00 | 85 | 1020.2 |
| 20260901192410 | 59 | 263 | 0.0 | 2.0 | 0.00 | 0.00 | 0.00 | 84 | 1020.3 |
| 20260901190410 | 60 | 265 | 0.0 | 3.0 | 0.00 | 0.00 | 0.00 | 82 | 1020.3 |
| 20260901183410 | 62 | 273 | 1.0 | 3.0 | 0.00 | 0.00 | 0.00 | 77 | 1020.2 |
| 20260901182410 | 63 | 275 | 2.0 | 4.0 | 0.00 | 0.00 | 0.00 | 75 | 1020.1 |
| 20260901181410 | 63 | 300 | 2.0 | 6.0 | 0.00 | 0.00 | 0.00 | 74 | 1020.0 |
| 20260901180410 | 64 | 264 | 3.0 | 8.0 | 0.00 | 0.00 | 0.00 | 74 | 1020.1 |
| 20260901175410 | 64 | 275 | 4.0 | 10.0 | 0.00 | 0.00 | 0.00 | 73 | 1020.0 |
| 20260901174410 | 65 | 312 | 3.0 | 7.0 | 0.00 | 0.00 | 0.00 | 73 | 1019.9 |